Station PSBM1 - 8410140 - Eastport, ME Image indicating link to RSS feed of recent meteorological observations for station PSBM1


Conditions at PSBM1 as of
(4:48 am EDT)
0848 GMT on 05/22/2024:
     

Click on the graph icon in the table below to see a time series plot of the last five days of that observation.

5-day plot - Wind Direction Wind Direction (WDIR):SSE ( 160 deg true )
5-day plot - Wind Speed Wind Speed (WSPD): 6.0 kts
5-day plot - Wind Gust Wind Gust (GST): 7.0 kts
5-day plot - Atmospheric Pressure Atmospheric Pressure (PRES):29.80 in
5-day plot - Air Temperature Air Temperature (ATMP): 47.7 °F
5-day plot - Water Temperature Water Temperature (WTMP): 45.1 °F
5-day plot - Wind Chill Wind Chill (CHILL): 44.4 °F
5-day plot - Wind Speed at 10 Meters Wind Speed at 10 meters (WSPD10M): 7.8 kts
5-day plot - Wind Speed at 20 Meters Wind Speed at 20 meters (WSPD20M): 7.8 kts
5-day plot -  Wind Speed, Wind Gust and Atmospheric Pressure Combined plot of Wind Speed, Gust, and Air Pressure
NOS Water Level Observation Network Water Level
Previous observations
TIME
(EDT)
5-day plot - Wind Direction
WDIR
 
5-day plot - Wind Speed
WSPD
kts
5-day plot - Wind Gust
GST
kts
5-day plot - Wave Height
WVHT
ft
5-day plot - Dominant Wave Period
DPD
sec
5-day plot - Average Wave Period
APD
sec
5-day plot - Mean Wave Direction
MWD
 
5-day plot - Atmospheric Pressure
PRES
in
5-day plot - Pressure Tendency
PTDY
in
5-day plot - Air Temperature
ATMP
°F
5-day plot - Water Temperature
WTMP
°F
5-day plot - Dew Point
DEWP
°F
5-day plot - Salinity
SAL
psu
5-day plot - Visibility
VIS
nmi
5-day plot - Tide (above MLLW)
TIDE
ft
2024-05-22 04:42 amSSE 6.0 8.9----29.80- 47.7 45.1----
2024-05-22 04:36 amSSE 5.1 9.9----29.80- 47.7 45.1----
2024-05-22 04:30 amSSE 11.1 12.0----29.81- 47.7 45.1----
2024-05-22 04:24 am S 6.0 8.0----29.81- 47.7 45.1----
2024-05-22 04:18 amSSE 6.0 8.0----29.82- 47.8 45.1----
2024-05-22 04:12 am S 5.1 7.0----29.82- 48.6 45.1----
2024-05-22 04:06 am S 6.0 8.9----29.83- 48.6 45.1----
2024-05-22 04:00 am S 8.0 8.9----29.82+0.00 48.4 45.1----
2024-05-22 03:54 am S 6.0 7.0----29.82- 48.6 45.1----
2024-05-22 03:48 am S 5.1 7.0----29.83- 47.8 45.1----
2024-05-22 03:42 amSSE 4.1 7.0----29.82- 47.5 45.0----
2024-05-22 03:36 am S 7.0 8.9----29.82- 46.9 45.0----
2024-05-22 03:30 am S 6.0 8.9----29.82- 46.9 45.0----
2024-05-22 03:24 am S 7.0 13.0----29.82- 46.9 45.0----
2024-05-22 03:18 am S 8.9 12.0----29.82- 46.8 45.0----
2024-05-22 03:12 am S 9.9 13.0----29.81- 46.9 45.0----
2024-05-22 03:06 am S 8.0 11.1----29.81- 47.1 45.0----
2024-05-22 03:00 amSSE 11.1 12.0----29.81-0.02 46.9 45.0----
2024-05-22 02:54 amSSE 12.0 13.0----29.82- 46.8 45.1----
2024-05-22 02:48 amSSE 12.0 13.0----29.81- 46.8 45.1----
2024-05-22 02:42 amSSE 11.1 12.0----29.82- 46.8 45.1----
2024-05-22 02:36 amSSE 8.9 9.9----29.82- 46.8 45.1----
2024-05-22 02:30 amSSE 7.0 8.0----29.82- 46.6 45.1----
2024-05-22 02:24 amSSE 8.0 8.9----29.82- 46.8 45.1----
2024-05-22 02:18 amSSE 8.0 8.9----29.82- 46.6 45.1----
2024-05-22 02:12 amSSE 8.0 8.0----29.82- 46.6 45.1----
2024-05-22 02:06 amSSE 7.0 8.0----29.82- 46.6 45.0----
2024-05-22 02:00 amSSE 7.0 8.0----29.82-0.03 46.8 45.0----
2024-05-22 01:54 am S 7.0 7.0----29.82- 46.9 44.8----
2024-05-22 01:48 am S 4.1 5.1----29.82- 47.1 44.8----
2024-05-22 01:42 am S 4.1 6.0----29.82- 47.1 44.8----
2024-05-22 01:36 am S 6.0 7.0----29.82- 46.9 44.8----
2024-05-22 01:30 am S 4.1 6.0----29.83- 47.1 44.8----
2024-05-22 01:24 am S 5.1 6.0----29.82- 47.3 44.8----
2024-05-22 01:18 am S 5.1 6.0----29.82- 47.3 44.8----
2024-05-22 01:12 am S 5.1 7.0----29.83- 47.1 45.0----
2024-05-22 01:06 am S 6.0 8.0----29.82- 47.1 45.0----
2024-05-22 01:00 am S 8.0 9.9----29.82-0.04 46.8 45.1----
2024-05-22 12:54 am S 6.0 8.9----29.83- 47.1 45.1----
2024-05-22 12:48 am S 8.0 9.9----29.83- 47.1 45.1----
2024-05-22 12:42 am S 8.9 11.1----29.83- 46.8 45.1----
2024-05-22 12:36 am S 7.0 8.9----29.83- 47.1 45.1----
2024-05-22 12:30 am S 7.0 8.9----29.83- 46.8 45.0----
2024-05-22 12:24 am S 8.0 8.9----29.83- 46.9 45.1----
2024-05-22 12:18 am S 7.0 8.0----29.83- 47.1 45.1----
2024-05-22 12:12 am S 7.0 8.9----29.83- 47.5 45.3----
2024-05-22 12:06 am S 8.0 11.1----29.83- 47.3 45.3----
2024-05-22 12:00 am S 8.9 11.1----29.83-0.01 47.7 45.3----
2024-05-21 11:54 pm S 5.1 8.9----29.84- 48.2 45.3----
2024-05-21 11:48 pm S 7.0 8.9----29.85- 47.8 45.3----
2024-05-21 11:42 pm S 8.0 11.1----29.85- 47.7 45.1----
2024-05-21 11:36 pm S 8.0 9.9----29.85- 47.7 45.1----
2024-05-21 11:30 pm S 6.0 8.0----29.85- 47.5 45.1----
2024-05-21 11:24 pmSSE 7.0 8.0----29.86- 47.3 45.0----
2024-05-21 11:18 pm SE 7.0 8.9----29.86- 47.8 45.0----
2024-05-21 11:12 pmSSE 5.1 6.0----29.86- 49.1 45.0----
2024-05-21 11:06 pmSSE 4.1 6.0----29.85- 50.5 44.8----
2024-05-21 11:00 pm S 5.1 13.0----29.85+0.01 51.4 44.8----
2024-05-21 10:54 pm S 9.9 14.0----29.85- 52.0 44.8----
2024-05-21 10:48 pm S 11.1 14.0----29.85- 52.2 44.8----
2024-05-21 10:42 pm S 8.9 12.0----29.85- 51.1 44.8----
2024-05-21 10:36 pm S 8.0 9.9----29.86- 51.3 44.8----
2024-05-21 10:30 pm S 6.0 8.9----29.85- 50.5 44.8----
2024-05-21 10:24 pm S 8.0 9.9----29.86- 49.5 44.8----
2024-05-21 10:18 pm SE 7.0 8.0----29.86- 48.2 44.8----
2024-05-21 10:12 pmSSE 5.1 6.0----29.86- 48.9 44.8----
2024-05-21 10:06 pmSSE 6.0 8.9----29.86- 48.0 45.0----
2024-05-21 10:00 pm S 6.0 8.9----29.86+0.02 47.7 45.0----
2024-05-21 09:54 pmSSE 8.9 11.1----29.85- 48.0 45.0----
2024-05-21 09:48 pmSSE 7.0 8.9----29.85- 48.4 45.1----
2024-05-21 09:42 pmSSE 7.0 8.9----29.85- 49.6 45.1----
2024-05-21 09:36 pm S 5.1 9.9----29.85- 51.1 45.3----
2024-05-21 09:30 pm S 7.0 9.9----29.85- 50.9 45.5----
2024-05-21 09:24 pm S 7.0 8.9----29.85- 50.5 45.9----
2024-05-21 09:18 pmSSE 8.0 9.9----29.85- 47.8 45.9----
2024-05-21 09:12 pmSSE 8.9 11.1----29.85- 48.0 45.9----
2024-05-21 09:06 pmSSE 9.9 11.1----29.84- 48.7 46.0----
2024-05-21 09:00 pmSSE 9.9 13.0----29.84+0.02 48.2 46.2----
2024-05-21 08:54 pmSSE 11.1 12.0----29.84- 48.4 46.2----
2024-05-21 08:48 pmSSE 9.9 12.0----29.84- 48.7 46.4----
2024-05-21 08:42 pm S 9.9 12.0----29.84- 50.5 46.4----
2024-05-21 08:36 pm S 8.9 13.0----29.84- 50.5 46.4----
2024-05-21 08:30 pm S 12.0 13.0----29.84- 50.4 46.4----
2024-05-21 08:24 pm S 8.9 13.0----29.84- 52.3 46.4----
2024-05-21 08:18 pm S 8.0 12.0----29.84- 52.2 46.4----
2024-05-21 08:12 pm S 9.9 12.0----29.84- 51.4 46.4----
2024-05-21 08:06 pm S 8.0 12.0----29.84- 51.6 46.4----
2024-05-21 08:00 pm S 8.9 12.0----29.83+0.00 51.4 46.4----
2024-05-21 07:54 pm S 9.9 12.0----29.84- 51.3 46.6----
2024-05-21 07:48 pm S 8.9 13.0----29.84- 51.1 46.6----
2024-05-21 07:42 pm S 11.1 14.0----29.84- 51.1 46.8----
2024-05-21 07:36 pm S 9.9 12.0----29.83- 50.9 46.8----
2024-05-21 07:30 pmSSE 11.1 13.0----29.84- 49.1 46.8----
2024-05-21 07:24 pmSSE 13.0 15.0----29.84- 49.1 46.8----
2024-05-21 07:00 pm S 12.0 17.1----29.83+0.00 52.0 46.8----
2024-05-21 06:54 pm S 12.0 15.0----29.83- 52.3 46.8----
2024-05-21 06:48 pm S 9.9 15.0----29.83- 52.9 46.8----
2024-05-21 06:42 pm S 9.9 15.9----29.83- 53.2 46.8----
2024-05-21 06:36 pm S 12.0 18.1----29.83- 53.1 46.8----
2024-05-21 06:30 pm S 15.0 17.1----29.83- 53.1 46.8----
2024-05-21 06:24 pm S 12.0 14.0----29.83- 55.0 46.8----
2024-05-21 06:18 pm S 12.0 15.9----29.83- 55.2 46.8----
2024-05-21 06:12 pm S 12.0 17.1----29.83- 55.2 46.8----
2024-05-21 06:06 pm S 14.0 17.1----29.83- 54.1 46.8----
2024-05-21 06:00 pm S 13.0 15.9----29.82-0.02 52.5 46.6----
2024-05-21 05:54 pm S 13.0 15.9----29.82- 52.9 46.6----
2024-05-21 05:48 pm S 13.0 17.1----29.82- 53.2 46.6----
2024-05-21 05:42 pm S 13.0 17.1----29.82- 52.9 46.6----
2024-05-21 05:36 pm S 14.0 17.1----29.82- 52.7 46.6----
2024-05-21 05:30 pm S 13.0 15.9----29.82-- 46.6----
2024-05-21 05:24 pm S 14.0 15.9----29.82-- 46.6----
2024-05-21 05:18 pm S 12.0 14.0----29.82-- 46.6----
2024-05-21 05:12 pmSSE 13.0 15.0----29.83-- 46.4----
2024-05-21 05:06 pmSSE 14.0 17.1----29.83-- 46.4----
2024-05-21 05:00 pmSSE 14.0 15.9----29.83-0.01 50.9 46.4----
2024-05-21 04:54 pmSSE 15.0 15.9----29.83- 50.9 46.4----
2024-05-21 04:48 pmSSE 13.0 15.0----29.83-- 46.4----
2024-05-21 04:42 pmSSE 13.0 15.0----29.83-- 46.4----
2024-05-21 04:36 pmSSE 14.0 15.0----29.83-- 46.4----
2024-05-21 04:30 pmSSE 14.0 15.0----29.84-------
2024-05-21 04:24 pmSSE 15.0 15.9----29.83-------
2024-05-21 04:18 pmSSE 15.0 17.1----29.83-- 46.0----
2024-05-21 04:12 pmSSE 14.0 15.9----29.83-- 46.0----
2024-05-21 04:06 pmSSE 15.0 17.1----29.83-- 46.0----
2024-05-21 04:00 pmSSE 14.0 17.1----29.83-0.01 50.9 46.0----
2024-05-21 03:54 pm S 14.0 17.1----29.84- 50.9 46.0----
2024-05-21 03:48 pmSSE 15.9 18.1----29.84-- 46.0----
2024-05-21 03:42 pmSSE 15.9 18.1----29.84-- 46.0----
2024-05-21 03:36 pmSSE 17.1 19.0----29.83-- 46.0----
2024-05-21 03:30 pmSSE 15.9 19.0------- 46.0----
2024-05-21 03:24 pm S 15.9 18.1------- 46.0----
2024-05-21 03:18 pm S 15.0 17.1----29.84- 51.4 45.7----
2024-05-21 03:12 pmSSE 15.0 18.1----29.84- 51.4 45.5----
2024-05-21 03:06 pmSSE 15.9 18.1----29.84- 52.0 45.5----
2024-05-21 03:00 pmSSE 17.1 19.0----29.84-0.03 51.6 45.3----
2024-05-21 02:54 pmSSE 15.0 18.1----29.84- 50.7 45.3----
2024-05-21 02:48 pmSSE 17.1 19.0----29.84- 50.7 45.3----
2024-05-21 02:42 pmSSE 15.9 18.1----29.84- 50.7 45.3----
2024-05-21 02:36 pmSSE 15.9 18.1----29.84- 50.4 45.3----
2024-05-21 02:30 pmSSE 17.1 19.0----29.84- 49.8 45.3----
2024-05-21 02:24 pmSSE 18.1 20.0----29.83- 49.8 45.3----
2024-05-21 02:18 pmSSE 17.1 19.0----29.84- 50.0 45.3----
2024-05-21 02:12 pmSSE 18.1 20.0----29.84- 50.0 45.1----
2024-05-21 02:06 pmSSE 18.1 21.0----29.84- 50.0 45.1----
2024-05-21 02:00 pm S 17.1 20.0----29.84-0.05 50.7 45.1----
2024-05-21 01:54 pm S 18.1 19.0----29.84- 50.7 45.3----
2024-05-21 01:48 pm S 17.1 21.0----29.84- 50.5 45.1----
2024-05-21 01:42 pmSSE 19.0 21.0----29.83- 50.4 45.1----
2024-05-21 01:36 pmSSE 19.0 21.0----29.84- 50.2 45.1----
2024-05-21 01:30 pm S 17.1 19.0----29.84- 50.4 45.1----
2024-05-21 01:24 pm S 15.0 19.0----29.84- 50.7 45.1----
2024-05-21 01:18 pm S 18.1 21.0----29.84- 50.0 45.1----
2024-05-21 01:12 pm S 18.1 20.0----29.84- 50.0 45.1----
2024-05-21 01:06 pm S 14.0 18.1----29.85- 51.1 45.1----
2024-05-21 01:00 pm S 15.0 19.0----29.85-0.05 50.0 45.1----
2024-05-21 12:54 pmSSE 15.9 18.1----29.85- 49.8 45.1----
2024-05-21 12:48 pmSSE 15.9 19.0----29.85- 50.2 45.3----
2024-05-21 12:42 pmSSE 15.0 18.1----29.86- 50.4 45.1----
2024-05-21 12:36 pmSSE 15.0 18.1----29.86- 50.0 45.1----
2024-05-21 12:30 pmSSE 15.9 19.0----29.87- 49.8 45.3----
2024-05-21 12:24 pmSSE 15.0 18.1----29.87- 49.5 45.3----
2024-05-21 12:18 pmSSE 15.9 19.0----29.87- 49.3 45.5----
2024-05-21 12:12 pmSSE 17.1 19.0----29.87- 49.5 45.3----
2024-05-21 12:06 pmSSE 17.1 19.0----29.87- 49.6 45.3----
2024-05-21 12:00 pmSSE 15.9 18.1----29.87-0.03 49.6 45.3----
2024-05-21 11:54 amSSE 15.0 15.9----29.87- 49.6 45.3----
2024-05-21 11:48 amSSE 15.0 18.1----29.87- 49.5 45.1----
2024-05-21 11:42 amSSE 15.0 17.1----29.88- 49.3 44.8----
2024-05-21 11:36 amSSE 14.0 15.9----29.88- 49.1 44.4----
2024-05-21 11:30 amSSE 13.0 15.9----29.88- 49.3 44.4----
2024-05-21 11:24 amSSE 13.0 15.0----29.88- 49.1 44.4----
2024-05-21 11:18 amSSE 14.0 15.0----29.89- 49.3 44.4----
2024-05-21 11:12 amSSE 12.0 15.0----29.89- 49.3 44.4----
2024-05-21 11:06 amSSE 13.0 15.9----29.89- 49.3 44.8----
2024-05-21 11:00 amSSE 12.0 15.0----29.89-0.03 49.5 44.8----
2024-05-21 10:54 amSSE 13.0 15.9----29.88- 49.6 44.8----
2024-05-21 10:48 am S 11.1 13.0----29.88- 50.0 44.8----
2024-05-21 10:42 am S 9.9 12.0----29.88- 49.6 45.0----
2024-05-21 10:36 am S 11.1 14.0----29.88- 49.6 45.0----
2024-05-21 10:30 am S 12.0 15.0----29.88- 49.5 45.0----
2024-05-21 10:24 amSSE 13.0 15.0----29.89- 49.5 45.0----
2024-05-21 10:18 amSSE 13.0 15.0----29.89- 49.3 45.0----
2024-05-21 10:12 amSSE 12.0 14.0----29.89- 49.1 45.1----
2024-05-21 10:06 amSSE 12.0 14.0----29.89- 48.9 45.1----
2024-05-21 10:00 amSSE 11.1 13.0----29.89-0.02 48.7 45.1----
2024-05-21 09:54 amSSE 9.9 15.0----29.89- 48.9 45.1----
2024-05-21 09:48 amSSE 11.1 15.0----29.89- 48.6 45.3----
2024-05-21 09:42 amSSE 12.0 14.0----29.89- 48.4 45.3----
2024-05-21 09:36 amSSE 12.0 14.0----29.89- 48.4 45.5----
2024-05-21 09:30 amSSE 12.0 14.0----29.89- 48.4 45.5----
2024-05-21 09:24 amSSE 12.0 14.0----29.89- 48.0 45.7----
2024-05-21 09:18 amSSE 13.0 14.0----29.89- 47.8 45.7----
2024-05-21 09:12 amSSE 12.0 15.0----29.89- 47.7 45.9----
2024-05-21 09:06 amSSE 13.0 15.0----29.89- 47.5 45.9----
2024-05-21 09:00 amSSE 13.0 15.0----29.90-0.01 47.3 45.9----
2024-05-21 08:54 amSSE 11.1 13.0----29.90- 47.3 46.0----
2024-05-21 08:48 amSSE 11.1 13.0----29.90- 47.5 46.0----
2024-05-21 08:42 amSSE 12.0 13.0----29.90- 47.5 46.2----
2024-05-21 08:36 amSSE 11.1 12.0----29.90- 47.3 46.4----
2024-05-21 08:30 amSSE 9.9 12.0----29.91- 47.5 46.4----
2024-05-21 08:24 amSSE 9.9 12.0----29.91- 47.3 46.4----
2024-05-21 08:18 amSSE 11.1 13.0----29.91- 47.3 46.4----
2024-05-21 08:12 amSSE 8.9 11.1----29.91- 47.3 46.4----
2024-05-21 08:06 amSSE 8.9 11.1----29.91- 47.5 46.4----
2024-05-21 08:00 amSSE 8.0 9.9----29.91+0.02 47.5 46.6----
2024-05-21 07:54 amSSE 8.9 12.0----29.91- 47.5 46.6----
2024-05-21 07:48 amSSE 11.1 12.0----29.91- 47.7 46.6----
2024-05-21 07:42 amSSE 8.9 9.9----29.91- 47.8 46.6----
2024-05-21 07:36 amSSE 8.9 11.1----29.91- 48.0 46.6----
2024-05-21 07:30 amSSE 8.0 9.9----29.91- 49.3 46.6----
2024-05-21 07:24 amSSE 7.0 8.0----29.92- 49.1 46.6----
2024-05-21 07:18 am S 7.0 9.9----29.92- 49.3 46.6----
2024-05-21 07:12 amSSE 8.0 8.9----29.91- 49.3 46.6----
2024-05-21 07:06 am S 5.1 8.9----29.91- 50.0 46.8----
2024-05-21 07:00 am S 6.0 8.9----29.91+0.02 49.6 46.6----
2024-05-21 06:54 am S 6.0 8.9----29.91- 49.5 46.6----
2024-05-21 06:48 am S 6.0 9.9----29.91- 49.3 46.6----
2024-05-21 06:42 am S 6.0 9.9----29.91- 49.1 46.6----
2024-05-21 06:36 am S 8.0 11.1----29.91- 48.9 46.6----
2024-05-21 06:30 am S 7.0 9.9----29.91- 48.9 46.6----
2024-05-21 06:24 am S 6.0 8.9----29.91- 48.9 46.6----
2024-05-21 06:18 am S 7.0 9.9----29.91- 49.1 46.4----
2024-05-21 06:12 am S 8.0 11.1----29.91- 49.1 46.4----
2024-05-21 06:06 am S 8.9 13.0----29.91- 48.9 46.4----
2024-05-21 06:00 am S 8.0 12.0----29.91+0.00 48.9 46.2----
2024-05-21 05:54 am S 9.9 15.0----29.91- 48.7 46.2----
2024-05-21 05:48 am S 8.9 13.0----29.91- 48.7 46.2----
2024-05-21 05:42 am S 8.0 12.0----29.91- 48.2 46.2----
2024-05-21 05:36 amSSE 8.0 11.1----29.91- 46.9 46.0----
2024-05-21 05:30 amSSE 8.9 14.0----29.90- 46.9 46.0----
2024-05-21 05:24 amSSE 9.9 12.0----29.90- 46.2 46.0----
2024-05-21 05:18 amSSE 11.1 12.0----29.89- 46.4 46.0----
2024-05-21 05:12 amSSE 11.1 11.1----29.89- 46.8 46.0----
2024-05-21 05:06 am S 7.0 11.1----29.89- 48.9 46.0----
2024-05-21 05:00 am S 6.0 9.9----29.89+0.00 49.1 45.9----
2024-05-21 04:54 am S 8.0 11.1----29.89- 49.1 45.7----